Location: Kapla
(46.2483°N, 15.0094°E)
Time: 20:19:51
(UTC+00:00)

Cosmos 1633 Rocket - Pass Details

Date: 03 March 2021
Orbit: 606 x 624 km, 82.5° (Epoch: 20 April)

Event Time Altitude Azimuth Distance (km) Brightness Sun altitude
Rises 17:56:00 0° 199° (SSW) 2,890 6.7 -12.3°
Reaches altitude 10° 17:58:16 10° 205° (SSW) 1,990 5.9 -12.7°
Maximum altitude 18:02:35 53° 282° (WNW) 769 3.9 -13.5°
Drops below altitude 10° 18:06:57 10° 0° (N) 2,009 5.7 -14.2°
Sets 18:09:14 0° 5° (N) 2,920 6.5 -14.6°
